レモン彗星

397P/Lemmon (2020)

English version
Home page
Updated on August 1, 2021

---------------------------------------------------------------------

・ プロフィール

符号 397P/2020 M2
検出日 2020年6月29日
検出光度 17.8等
検出者 H. Sato (Tokyo, Japan)

・ 写真集

・ 軌道要素

Epoch 2020 May 31.0 TT = JDT 2459000.5
T 2020 June 19.26108 TT                                 Rudenko
q   2.2769361            (2000.0)            P               Q
n   0.13174621     Peri.   14.39257     +0.92382321     -0.38186034
a   3.8251103      Node     8.21204     +0.32981300     +0.75799945
e   0.4047398      Incl.   10.92893     +0.19435552     +0.52879062
P   7.48
From 496 observations 2012 Sept. 14-2021 Jan. 21, mean residual 0".7.

・ 星図

・ 光度変化

        m1 = 10.0 + 5 logΔ + 15.0 log r

---------------------------------------------------------------------

軌道要素はM.P.E.C. 2021-B143に掲載されたものです。
星図はステラナビゲータ Ver.10 (アストロアーツ) で作成したものです。
光度グラフはComet for Windowsで作成したものです。

---------------------------------------------------------------------

Copyright(C) Seiichi Yoshida (comet@aerith.net). All rights reserved.